Theta_e
298 287 287 286 288 289 290 291 292 293 290 289 289 287 287 286 289 292 292 293 293 291 288 290 290 290 291 293 294 294 294 292 294 295 296 296 297 297 297 298 299 299 301 302 302 303 305 306 307 307 308 310 310 313 315 316 317 319 319 316 317 317 316 315 314 314 314 314 312 310 313 315 313 317 318 318 318 319 320 321 324 327 328 329 329 327
293 288 289 291 293 292 292 291 291 290 289 289 287 287 286 288 287 292 292 293 293 290 285 286 286 288 290 292 293 293 292 293 293 294 295 297 297 298 297 298 299 300 299 302 301 301 302 304 305 305 306 307 309 310 313 315 316 317 317 316 317 314 314 316 316 315 315 316 316 315 315 313 310 314 316 318 317 318 317 316 319 324 325 327 327 324
287 287 290 293 293 292 292 291 290 290 290 288 287 285 286 286 288 292 291 292 293 290 287 285 287 290 291 292 294 293 295 297 296 297 298 296 296 296 297 298 299 298 299 298 300 302 303 303 304 304 305 307 310 310 311 313 313 313 314 314 314 313 314 314 314 313 314 313 311 312 307 312 306 308 309 312 312 314 314 316 317 320 323 323 325 325
285 286 292 294 292 292 291 290 290 289 288 286 286 284 284 284 288 285 288 291 292 290 287 286 289 291 293 293 294 295 295 295 295 296 297 296 296 296 297 299 300 299 299 298 299 302 302 302 303 303 304 306 307 307 307 309 310 312 311 311 311 312 312 312 312 311 311 309 307 306 306 308 309 307 306 307 308 310 314 315 316 318 319 321 323 322
285 290 293 293 292 292 291 290 288 285 287 287 287 283 284 289 291 288 288 290 289 289 291 289 287 288 287 288 288 290 292 295 295 294 294 294 296 298 299 298 299 299 298 298 299 300 300 301 303 304 304 304 305 306 308 308 310 312 311 311 311 311 311 311 309 309 308 308 306 304 304 303 303 303 305 304 305 310 313 315 314 316 316 318 319 322
289 293 295 293 292 291 290 289 288 287 285 285 288 290 288 289 291 291 290 288 282 281 286 290 280 280 283 286 288 291 288 291 290 293 294 295 295 296 297 298 297 298 296 298 299 302 302 303 302 301 301 303 304 305 307 308 309 310 310 310 310 310 310 310 309 309 309 309 308 305 306 305 304 305 304 307 309 308 310 313 313 313 313 315 315 316
288 294 295 293 291 290 289 289 289 289 283 284 286 293 292 290 289 288 288 284 278 279 289 289 281 280 285 288 289 289 288 290 291 290 293 294 296 296 298 299 297 298 299 298 299 300 301 300 300 301 302 303 304 305 304 304 306 307 309 309 309 310 309 309 308 308 308 308 308 307 307 307 306 306 305 304 305 306 306 308 309 311 310 311 313 313
291 293 292 292 291 289 288 288 290 290 286 283 289 291 291 289 289 289 286 285 280 282 286 287 283 277 280 289 287 286 287 288 290 292 293 293 293 296 297 298 296 299 298 299 300 299 301 302 303 303 302 302 304 303 302 304 305 306 307 308 308 308 308 308 308 308 309 308 307 306 305 305 305 305 304 304 304 304 304 306 308 308 308 308 309 311
293 290 291 291 289 288 287 287 292 290 286 286 293 292 291 291 290 287 286 283 284 283 281 280 288 281 278 286 290 290 288 287 290 292 293 292 291 292 295 296 296 297 298 299 300 300 300 301 302 301 302 302 301 301 303 304 305 305 305 306 306 307 307 307 307 308 307 308 307 306 305 304 303 304 303 303 304 305 304 305 305 306 306 306 305 307
294 291 292 293 290 287 290 291 291 292 290 292 292 293 292 290 289 287 282 286 281 279 278 282 285 279 278 282 287 285 287 286 289 291 291 290 292 291 293 297 299 299 299 299 301 300 298 300 301 301 302 301 302 302 303 303 303 304 304 305 306 306 307 307 306 307 306 306 305 305 304 304 303 302 302 301 303 303 303 306 304 305 304 304 303 303
294 295 296 294 290 290 290 292 291 292 292 293 291 290 288 285 283 281 281 281 279 275 277 282 285 283 277 280 285 286 287 288 289 287 292 296 297 298 296 297 298 299 299 298 299 298 299 297 299 299 300 301 299 300 302 302 303 304 304 305 305 306 305 306 306 306 305 305 305 305 304 304 303 302 303 301 300 301 301 305 305 303 303 302 302 300
292 292 293 293 295 293 291 291 291 292 292 292 288 283 281 280 279 278 278 278 275 272 277 282 284 284 276 277 283 287 287 287 290 291 296 296 297 298 299 299 298 298 298 298 298 299 297 297 297 297 298 298 300 299 301 301 302 303 304 304 304 303 304 304 305 305 305 305 304 305 304 304 304 303 304 303 302 301 302 304 304 303 301 299 299 299
287 288 291 294 295 294 289 289 288 287 288 288 285 283 278 276 276 273 275 275 273 275 281 281 283 283 284 285 288 289 292 290 291 292 294 295 297 298 298 298 298 296 297 298 297 296 296 296 296 296 296 296 299 301 301 302 302 302 303 303 304 303 303 304 304 305 304 304 304 304 303 303 304 303 304 304 303 302 302 303 303 302 301 299 297 297
283 284 291 291 292 294 292 288 285 285 288 286 286 280 277 273 272 269 269 271 272 277 280 282 283 283 282 285 290 295 296 292 291 292 292 293 296 295 295 297 298 296 296 297 297 295 295 295 296 296 296 298 299 299 301 301 301 302 303 302 304 304 303 303 303 304 303 303 303 303 303 303 303 304 304 305 304 302 302 302 303 302 301 299 298 297
278 279 285 288 286 292 293 291 290 287 288 289 286 286 281 275 271 269 270 272 274 274 278 280 279 278 277 284 290 290 291 292 291 291 292 292 292 292 293 294 296 297 295 295 296 298 298 298 297 297 296 297 298 299 300 301 301 301 302 302 302 303 302 302 303 303 303 303 303 302 303 303 303 304 304 305 305 302 302 302 301 300 301 300 299 299
283 281 284 294 291 294 293 293 291 288 287 285 286 285 279 281 277 274 271 272 272 275 275 276 279 278 283 287 290 290 291 292 293 290 290 291 291 291 293 294 294 296 297 296 297 299 299 298 296 296 296 297 297 298 299 300 301 301 303 302 303 303 302 301 301 302 303 303 302 302 302 302 302 302 303 303 303 303 302 302 303 301 301 301 300 299
283 280 288 293 292 294 293 293 292 290 280 283 287 283 284 284 284 277 275 280 276 273 276 274 280 283 284 286 291 295 294 292 290 291 292 292 293 290 292 293 293 294 293 295 299 299 299 296 297 298 297 297 297 297 299 300 301 302 302 302 301 301 301 301 301 302 302 302 301 301 301 301 301 301 302 303 303 302 301 301 303 303 302 301 300 299
283 279 287 288 288 291 290 292 291 290 288 286 282 285 289 288 285 281 274 272 271 272 275 276 278 279 276 280 284 285 288 290 289 289 291 291 290 289 292 292 293 293 295 296 298 298 297 296 298 299 298 297 298 298 299 300 301 302 302 302 301 301 301 301 301 301 301 301 300 300 300 301 301 302 302 302 302 301 301 300 301 302 301 301 300 300
286 280 283 287 287 290 292 293 291 292 291 286 282 288 288 280 279 280 275 272 270 268 271 275 276 279 281 284 286 286 286 287 288 287 287 288 289 290 290 292 292 293 296 295 296 296 298 297 297 297 298 297 297 297 298 299 300 300 300 301 302 302 302 302 301 300 300 301 301 301 300 300 300 301 301 300 301 300 300 299 300 301 301 300 299 297
287 281 281 286 288 289 289 288 284 286 290 291 290 290 287 281 276 278 279 274 275 270 270 275 277 279 284 283 286 287 286 289 291 288 288 288 288 291 294 292 294 296 296 296 295 295 297 297 295 296 296 296 297 296 296 297 298 299 300 300 301 301 301 300 300 300 300 299 300 299 298 299 300 300 300 299 299 299 299 298 298 299 299 299 297 296
285 283 275 283 285 287 284 286 284 288 287 286 285 284 286 284 285 280 281 279 276 268 268 269 273 278 286 288 286 286 287 289 287 292 292 293 294 294 294 296 296 296 298 296 296 296 296 296 295 293 292 293 292 293 293 296 298 299 299 300 300 300 300 300 300 300 300 299 299 298 297 298 298 298 299 297 298 298 298 297 296 296 297 295 295 295
283 283 279 281 282 282 283 287 289 290 292 290 289 286 288 284 280 276 276 281 275 278 272 269 276 282 288 290 291 289 289 292 290 292 292 291 290 290 292 297 297 299 297 295 297 296 296 293 292 291 292 291 291 291 293 296 296 296 298 300 299 299 300 300 300 300 299 298 298 297 297 296 296 297 297 296 295 293 294 294 294 294 293 294 294 294
289 282 280 278 282 286 287 287 290 291 291 290 289 288 290 286 284 277 276 274 277 279 275 273 273 283 289 291 288 290 290 291 291 291 293 292 291 291 292 295 296 295 297 296 296 297 294 292 291 291 291 293 293 294 291 291 295 297 297 296 297 298 299 299 300 299 298 298 297 296 295 294 293 294 293 293 293 292 292 293 292 292 293 294 293 292
294 281 279 280 285 286 289 289 289 291 292 289 289 286 285 284 284 283 280 276 280 276 279 276 276 283 289 288 292 289 291 291 291 292 293 292 291 291 292 295 296 297 296 294 294 294 294 290 290 290 290 293 292 291 293 295 295 296 296 296 296 297 297 296 297 297 297 297 296 294 292 293 292 291 291 292 292 292 292 292 291 290 292 293 292 292
285 282 283 276 274 279 280 284 286 287 289 282 282 286 286 287 286 282 279 278 279 279 281 278 276 283 289 287 289 288 289 290 292 291 290 292 292 292 292 293 293 294 295 294 294 294 292 291 293 295 294 293 293 293 293 294 295 295 296 295 297 298 296 296 296 296 296 293 292 290 291 291 291 291 291 292 291 291 291 291 291 290 291 290 290 290
289 284 284 277 276 274 273 277 276 279 285 284 282 285 289 287 286 284 282 279 279 280 280 278 281 287 290 288 289 288 287 289 288 288 290 293 294 294 293 293 293 293 295 295 295 292 294 296 294 293 293 294 294 294 294 294 295 296 296 297 296 297 295 296 293 295 295 293 292 291 291 291 290 291 291 291 290 291 290 290 290 290 290 290 290 289
284 285 287 285 283 281 281 279 283 286 282 283 282 286 286 288 288 287 283 280 281 284 280 283 285 287 288 290 288 288 288 290 290 289 291 292 291 290 291 293 295 295 296 296 296 296 292 292 294 296 296 295 294 293 294 294 295 295 295 296 296 297 296 295 294 295 294 293 292 292 291 291 291 291 290 290 291 290 290 290 289 289 289 288 289 289
285 285 286 285 285 284 283 286 288 289 286 287 286 285 287 287 286 286 284 283 287 280 280 285 286 284 287 290 290 289 289 289 291 292 291 291 293 294 296 295 295 294 292 293 293 295 296 297 297 296 295 294 294 294 293 294 295 295 295 295 295 295 295 296 294 294 293 292 292 292 293 292 291 290 290 290 289 289 289 289 288 288 287 287 287 288
286 285 285 286 284 285 288 289 289 288 287 286 287 286 285 286 286 285 286 288 285 283 282 286 285 285 288 291 290 290 291 292 292 294 294 294 293 293 295 296 296 294 294 295 297 296 295 296 296 297 296 294 293 293 294 294 294 293 293 293 294 293 294 294 294 294 294 293 293 294 293 291 290 290 290 289 289 288 288 287 287 286 286 286 287 288
288 286 286 287 285 286 287 288 288 287 286 286 286 286 286 286 286 287 288 289 287 284 287 287 285 285 289 291 292 293 293 294 295 296 296 295 296 296 295 294 294 294 295 296 297 297 297 298 297 296 295 294 294 294 294 294 294 294 294 294 292 292 293 291 293 294 294 294 295 295 292 291 290 290 289 289 289 289 288 287 286 286 285 285 286 286
291 285 289 285 285 285 286 288 288 286 286 285 287 287 287 287 286 286 286 287 285 286 288 289 287 288 293 292 295 297 296 295 296 295 296 297 297 295 293 293 293 295 296 297 297 297 298 297 296 295 294 295 295 295 296 296 296 295 293 293 293 293 292 292 293 293 294 294 295 294 291 291 290 289 289 289 288 288 287 287 285 285 285 284 285 286
289 285 286 285 284 284 287 286 286 287 287 286 287 288 288 287 283 284 284 286 285 286 287 284 285 287 292 292 295 296 296 294 295 296 297 297 296 293 292 293 294 296 297 298 297 297 297 297 297 297 296 296 296 295 295 296 296 293 293 294 293 294 292 291 292 293 294 294 294 292 291 291 290 289 289 288 288 287 287 286 285 284 284 284 284 284
287 286 285 284 283 284 286 285 286 286 286 284 285 288 290 289 289 288 288 288 290 290 284 285 287 292 294 295 293 295 296 296 296 296 296 296 294 293 292 294 295 296 297 298 298 297 297 297 297 297 297 296 296 297 297 296 295 294 295 294 294 291 290 291 292 293 293 293 292 291 291 290 289 289 288 288 287 287 286 285 284 284 283 283 283 283
288 287 285 286 282 284 284 285 285 284 277 280 292 293 292 290 290 287 288 290 292 292 291 294 294 296 296 295 294 295 295 295 296 297 297 296 293 291 293 294 295 295 295 296 297 297 297 298 297 297 296 296 296 296 296 293 294 296 295 294 289 290 291 291 291 292 292 291 291 290 289 289 288 288 288 287 286 286 285 285 284 283 283 283 282 283
287 287 285 286 283 282 281 283 282 277 279 290 292 292 294 293 292 290 291 292 293 293 294 293 294 294 295 296 296 296 296 296 295 295 297 295 293 294 294 296 297 296 296 296 296 296 296 296 296 295 295 295 294 293 293 293 292 293 290 290 290 289 290 290 291 290 290 290 290 289 288 288 288 288 286 286 286 285 285 284 284 282 282 282 282 282
285 285 284 285 285 285 282 282 275 277 286 288 289 290 290 290 289 288 286 289 291 292 293 292 294 295 296 296 297 297 296 295 294 294 294 294 293 293 294 295 295 294 294 294 293 293 293 293 293 292 293 292 290 292 290 292 290 289 290 287 289 288 289 289 289 290 289 289 289 288 288 288 287 287 286 285 285 284 284 283 283 282 282 282 282 282
289 286 285 283 287 280 282 281 280 286 285 287 286 286 286 285 285 287 284 287 292 293 293 292 294 295 296 296 296 295 293 291 292 296 293 292 294 293 293 292 292 291 291 290 288 290 290 288 288 289 288 290 290 290 292 289 286 288 287 286 286 287 287 287 288 289 289 289 289 288 288 288 287 286 285 285 284 284 283 282 282 281 282 282 282 283
291 287 287 284 282 286 281 279 278 279 277 283 288 290 289 289 291 292 288 286 289 288 291 291 291 292 291 289 289 289 287 290 290 293 290 291 292 293 291 290 289 288 288 289 289 287 287 287 288 288 287 288 289 289 287 285 285 286 286 286 284 285 286 286 288 289 288 288 288 288 287 287 287 286 285 284 284 283 282 282 282 281 282 282 282 283
290 291 287 286 284 284 281 278 278 277 279 285 284 285 287 286 291 287 286 283 285 283 285 287 287 286 286 285 286 285 287 285 287 290 290 291 291 291 289 290 289 289 288 287 288 289 288 287 286 287 287 288 288 289 286 284 284 286 288 286 284 284 286 287 288 288 287 287 287 286 287 286 286 286 285 284 283 283 282 281 281 280 281 282 282 283
287 285 284 283 282 283 281 280 277 281 279 283 282 283 285 285 291 289 280 280 286 284 287 286 286 287 286 285 286 285 285 283 285 290 292 290 288 289 287 289 289 290 290 290 290 287 286 285 285 287 287 287 288 286 284 283 284 285 286 286 283 284 286 288 288 286 284 284 285 285 285 285 285 284 284 283 282 281 281 280 279 279 280 281 282 282
285 284 285 280 283 283 283 281 283 282 286 287 286 285 284 287 288 279 276 284 285 284 285 286 287 288 287 287 286 286 285 289 290 292 291 289 288 290 289 286 287 287 288 289 290 289 288 288 286 286 286 286 285 283 282 282 284 286 285 284 283 285 287 285 283 282 283 282 283 282 283 283 284 283 282 282 281 280 279 279 280 279 280 281 282 282
284 285 284 285 282 281 282 280 280 283 285 287 285 287 286 286 280 277 283 285 283 283 285 283 284 284 285 287 286 286 289 289 288 288 288 288 288 289 289 288 288 288 288 288 288 287 287 287 288 288 287 284 283 282 282 282 284 285 284 283 284 286 283 281 281 281 281 280 280 280 281 281 280 282 281 280 280 279 278 278 279 280 280 281 281 280
283 282 280 282 284 285 283 280 279 275 284 285 286 286 287 282 280 284 283 282 282 283 283 282 284 285 284 285 285 286 286 286 286 287 288 288 288 289 289 290 290 290 290 290 291 291 288 287 288 288 288 286 282 281 281 280 283 284 283 283 285 283 281 281 281 281 280 279 280 279 279 279 280 280 280 280 280 279 278 278 278 279 280 280 280 280
285 281 279 283 286 279 280 278 279 285 288 288 287 282 282 284 286 285 286 286 286 284 283 284 283 285 284 286 286 285 286 286 287 288 288 289 289 289 290 290 290 290 290 289 287 288 286 286 287 287 288 286 283 281 280 281 283 284 283 284 283 280 279 279 280 279 279 278 278 278 278 278 278 279 279 279 279 278 278 277 278 278 279 280 279 279
284 280 282 279 281 283 279 282 284 285 287 288 286 285 285 286 286 286 287 286 286 285 284 285 284 284 285 285 285 285 285 286 287 288 286 288 288 288 288 289 289 289 290 289 289 288 285 286 286 287 286 286 284 282 281 280 282 283 283 282 279 279 280 279 279 279 278 278 277 278 277 277 278 278 277 278 278 278 277 276 277 277 277 279 279 279
282 283 282 282 282 281 282 284 284 283 283 285 286 283 285 284 283 285 287 287 287 287 288 287 286 285 284 285 285 285 285 286 286 287 288 288 288 289 288 287 288 289 289 289 290 290 287 286 284 284 284 286 284 281 281 281 281 282 284 279 279 279 280 279 279 278 278 277 277 277 277 277 276 277 277 277 277 278 278 277 277 277 277 278 278 278
281 281 281 281 279 282 279 284 284 284 282 281 282 282 281 283 283 283 284 284 285 285 285 283 284 285 285 284 284 284 285 286 286 287 287 287 288 288 288 288 289 288 288 288 289 289 288 287 286 285 285 284 285 279 280 279 280 281 280 278 278 277 278 278 279 278 277 277 277 277 277 278 277 277 277 276 277 277 278 278 277 277 278 278 278 278
279 281 281 279 280 280 279 282 281 282 282 281 282 282 283 284 284 284 283 284 284 283 283 285 285 284 284 285 286 284 284 285 285 286 287 287 287 288 288 288 289 289 289 289 288 288 287 287 286 286 285 284 285 280 279 278 279 278 278 276 277 276 277 278 278 278 277 277 277 278 277 278 278 278 277 277 278 277 277 277 278 278 278 278 278 278
279 281 273 278 280 279 278 279 280 279 279 279 280 282 283 284 282 281 281 281 282 283 284 283 284 286 287 287 287 286 284 284 284 285 285 286 287 287 288 288 288 288 288 288 288 287 286 286 285 285 284 284 283 279 277 277 277 275 276 276 275 276 278 278 277 277 276 277 277 277 278 278 278 278 278 278 279 279 280 279 279 279 278 278 279 279
277 276 276 276 272 273 275 278 279 275 275 278 279 281 282 281 280 281 280 281 282 283 283 282 283 283 284 284 284 284 283 284 284 283 284 286 287 287 287 287 287 287 288 288 287 286 285 284 283 282 283 283 281 277 276 275 275 274 275 274 275 277 279 278 278 276 277 277 278 278 278 278 278 278 279 279 279 279 279 281 282 281 280 280 282 282
278 277 278 275 274 274 278 277 279 278 278 280 282 281 281 280 281 281 281 280 280 280 281 282 282 283 283 284 284 284 284 285 285 284 284 285 286 287 287 286 286 287 287 287 286 286 286 285 283 281 281 282 280 276 275 275 274 274 275 276 277 278 278 278 278 278 278 279 279 280 279 279 278 279 279 279 279 279 279 279 281 283 283 283 283 283
Wind_Speed
1 4 5 5 7 8 4 6 7 4 7 4 4 4 1 3 1 1 0 2 1 1 4 7 7 7 10 11 9 8 7 5 7 9 10 9 9 9 9 9 11 10 14 8 8 9 11 12 11 9 8 8 7 8 10 11 11 12 13 11 12 10 9 9 9 8 9 9 6 5 9 10 7 7 7 7 6 6 6 7 7 7 7 9 9 9
4 4 4 6 7 7 7 4 4 4 5 4 4 3 2 1 1 1 1 2 2 1 3 2 4 10 10 11 11 7 5 9 9 9 10 12 11 10 11 12 12 13 5 2 4 6 6 7 7 6 7 7 9 9 10 13 15 13 11 12 12 8 9 11 11 10 9 10 11 11 11 7 6 7 8 8 7 7 6 5 5 6 6 7 9 8
2 4 5 6 4 3 2 5 4 4 4 3 2 2 1 2 1 1 1 1 1 2 7 3 6 12 10 10 11 9 12 11 10 12 12 11 10 9 10 12 12 8 10 6 7 5 8 8 7 7 7 8 12 11 11 10 7 6 8 9 8 9 10 10 10 9 11 8 6 6 4 7 3 1 3 4 5 5 6 6 5 5 6 6 7 8
2 5 9 3 3 5 3 5 7 5 5 4 2 1 3 2 1 3 2 1 1 3 3 2 8 15 9 7 12 13 10 7 6 8 9 7 9 11 13 13 12 12 11 8 8 9 6 6 7 6 7 9 7 6 5 6 9 7 8 7 8 9 9 8 9 9 5 5 3 3 3 4 5 5 3 3 4 5 6 7 7 6 6 7 7 6
5 2 0 2 3 4 4 2 6 3 1 1 3 2 1 1 0 3 1 1 1 1 1 3 5 11 4 3 5 6 3 4 7 5 6 7 8 11 10 9 11 12 8 9 7 6 3 6 8 11 10 6 8 8 9 9 10 9 11 10 10 10 10 8 7 7 6 6 5 4 4 4 4 3 4 4 4 6 6 6 7 9 7 7 8 8
3 3 0 3 2 5 5 2 2 7 1 1 2 4 3 2 4 1 2 4 7 3 2 2 6 6 5 6 7 9 5 9 5 2 7 9 9 8 10 15 8 5 5 8 9 9 9 9 6 5 5 7 7 8 9 8 8 7 8 8 8 7 8 9 8 8 8 8 9 7 8 8 7 8 7 12 13 10 10 10 5 5 7 7 7 7
4 1 1 5 4 4 4 2 2 4 4 1 2 1 3 6 4 3 1 3 2 0 1 2 2 9 7 10 8 7 6 9 8 6 10 8 8 9 11 10 6 6 5 4 3 2 4 4 5 6 8 9 8 9 5 5 6 7 7 7 8 8 7 6 6 8 8 8 8 10 9 7 9 9 7 2 2 6 5 4 6 6 5 6 7 6
2 1 5 4 5 3 4 1 2 6 6 2 1 2 5 5 4 2 4 3 3 2 4 2 3 3 9 17 2 4 3 8 9 11 12 11 9 8 8 7 6 6 6 5 6 5 7 10 13 13 10 8 10 7 5 6 6 7 8 7 8 6 7 6 7 9 9 9 8 8 7 7 7 8 7 5 4 3 4 5 5 5 5 5 5 6
2 3 3 2 2 3 6 3 1 5 5 2 1 5 4 6 4 4 4 2 0 3 7 4 0 0 5 13 5 1 7 6 10 13 11 7 5 7 9 8 6 5 5 5 6 6 7 8 8 6 8 8 5 5 8 8 7 6 6 6 6 7 7 7 9 10 8 9 10 9 8 8 6 6 6 5 5 5 5 6 4 6 6 5 5 5
2 4 5 7 5 4 3 0 0 7 4 2 2 3 5 6 5 3 2 2 2 2 8 2 2 3 7 7 10 2 1 6 9 11 7 6 8 6 5 2 2 1 1 4 6 5 5 6 6 7 6 5 7 7 6 5 5 6 5 7 8 8 8 7 8 9 9 9 9 9 9 10 8 6 5 5 7 6 6 8 7 7 7 7 6 6
1 1 4 4 4 4 5 1 1 1 2 5 6 7 5 7 3 2 5 2 2 4 7 7 7 6 7 5 7 3 1 3 6 3 2 2 3 3 3 5 5 5 4 3 0 0 0 1 5 5 6 7 5 5 5 6 6 6 6 7 8 8 7 8 9 10 10 9 9 10 10 10 10 8 8 7 7 6 6 8 8 7 7 6 6 5
2 2 1 1 2 4 3 5 6 2 4 5 2 3 4 2 5 3 3 4 1 7 4 2 4 3 7 5 7 8 5 3 3 0 1 1 1 3 2 2 5 5 3 1 1 1 1 2 1 2 5 5 6 5 6 5 5 6 6 7 8 6 7 8 9 10 10 9 9 9 10 11 10 10 9 10 10 9 10 9 8 6 5 5 5 5
1 1 1 2 2 7 4 8 5 5 3 6 7 7 5 2 3 2 2 2 5 7 0 4 1 2 13 7 5 7 10 5 1 3 1 2 1 1 2 3 4 2 2 3 3 3 2 4 4 4 5 5 6 8 7 6 6 6 6 7 9 8 8 9 9 10 10 9 9 9 9 9 8 9 10 10 9 9 9 8 8 8 7 5 5 6
5 2 1 0 4 2 6 9 2 2 1 5 8 7 5 1 1 4 4 2 4 5 3 1 2 6 2 3 10 12 12 5 3 4 4 4 3 3 4 4 4 3 4 5 4 3 4 4 5 6 5 6 5 5 6 6 7 6 7 7 9 9 8 8 8 9 9 9 9 9 9 9 9 10 10 9 9 8 9 9 10 9 9 8 8 7
2 3 6 4 2 3 4 8 13 9 9 9 3 10 9 8 5 5 3 5 7 6 2 4 2 7 2 3 1 5 8 10 6 3 3 4 4 4 4 3 2 2 4 3 4 6 9 10 9 7 6 5 6 6 6 6 7 6 7 8 9 8 8 8 9 8 10 10 10 9 9 9 9 9 8 8 7 8 9 8 9 9 8 9 8 8
9 4 5 9 1 9 10 3 5 6 2 1 3 6 5 9 6 3 5 4 2 1 2 1 6 4 5 3 6 4 7 10 9 7 7 7 2 3 3 5 3 4 4 4 6 7 7 6 5 6 6 7 6 6 6 6 6 7 8 7 9 10 9 9 10 10 11 11 9 9 10 10 9 8 7 7 7 7 8 8 9 9 9 8 8 8
3 3 2 1 4 10 5 3 3 5 5 4 5 7 8 5 5 2 2 1 1 3 9 2 8 6 8 7 10 15 11 9 7 8 9 9 10 6 6 3 4 5 4 5 7 7 7 5 6 7 7 6 6 6 8 8 8 9 9 8 9 8 7 10 11 11 10 9 9 10 9 9 9 9 10 10 9 8 7 8 8 9 9 9 9 8
9 4 2 3 3 1 0 1 2 3 3 7 4 8 1 2 4 4 5 2 1 5 8 3 10 6 3 12 3 4 2 1 1 6 7 8 6 6 7 7 4 3 5 6 6 6 6 5 6 7 6 7 8 8 8 9 8 8 8 9 9 9 11 10 10 10 9 10 10 9 10 9 10 10 9 9 9 8 8 7 7 7 8 9 9 8
5 2 1 0 1 5 2 3 1 1 1 5 4 3 7 4 3 2 4 3 2 2 6 4 3 8 9 12 2 2 1 2 5 4 4 6 7 6 5 7 5 4 1 3 5 5 6 5 6 7 8 7 7 7 8 7 7 6 6 7 9 12 11 10 9 8 8 9 8 8 9 10 9 9 8 7 7 7 8 9 8 9 9 7 7 8
2 5 2 2 2 1 1 4 9 4 3 0 2 1 1 4 3 5 7 4 6 5 0 9 2 10 7 5 11 7 2 6 8 8 6 6 4 1 2 3 4 5 4 4 3 4 5 6 5 6 7 7 7 6 5 5 5 7 7 8 9 7 7 7 9 9 10 9 8 8 7 8 9 9 9 8 8 9 9 8 8 8 8 9 8 8
2 3 5 1 3 2 2 4 9 10 8 2 2 3 1 0 2 4 1 5 5 3 4 4 9 10 7 8 7 7 7 6 4 2 4 4 1 0 3 5 4 2 4 4 5 5 5 5 5 5 4 4 2 3 4 5 7 7 6 8 8 10 9 10 9 8 9 8 9 9 10 10 9 9 8 8 8 9 9 7 8 8 8 7 9 8
3 2 6 1 1 5 7 4 7 12 13 11 12 11 12 8 4 4 8 1 3 4 5 2 14 12 8 6 9 9 6 5 4 2 3 3 3 4 5 3 1 1 1 4 5 5 5 4 3 3 2 2 3 5 5 6 5 6 8 8 7 7 9 10 9 9 8 8 8 10 10 10 7 8 8 8 7 8 8 8 8 7 6 9 8 9
7 3 8 6 9 10 7 4 4 6 3 2 5 9 8 6 6 5 7 5 1 4 2 4 1 21 2 10 5 8 7 5 6 2 2 2 3 4 4 4 2 1 2 4 6 6 5 3 3 4 5 5 7 7 6 5 6 7 7 7 7 8 10 8 7 6 7 8 9 10 8 7 7 7 8 9 8 8 8 8 8 7 9 8 7 7
5 3 3 2 1 2 2 3 3 1 3 3 5 2 4 6 7 8 6 6 8 2 4 3 5 17 3 3 1 3 1 2 4 1 1 1 4 5 4 2 2 3 5 5 5 6 6 4 3 2 5 6 7 6 7 7 6 7 6 6 6 10 9 6 6 7 7 8 8 6 6 7 6 7 8 9 9 9 8 8 7 7 8 8 7 9
5 3 7 2 1 2 4 3 2 2 1 2 2 3 4 4 3 2 3 1 2 8 9 8 13 16 0 0 3 4 4 4 1 3 3 3 4 4 5 4 4 5 5 5 5 5 5 6 7 7 6 7 7 7 6 7 8 8 8 6 8 9 6 6 6 6 6 5 6 6 7 8 7 9 10 10 8 9 8 8 8 7 8 7 7 7
6 5 8 7 11 10 7 9 9 7 8 2 3 4 8 10 8 4 6 2 7 7 9 7 10 17 9 3 3 6 5 5 5 4 3 0 1 4 5 5 5 5 6 6 7 6 7 8 7 7 8 9 8 8 7 7 8 9 9 11 9 8 7 8 5 6 6 6 7 8 9 9 8 10 10 10 9 10 9 9 8 8 7 7 8 7
3 3 8 11 12 13 10 6 5 6 4 6 5 8 5 7 10 9 4 6 14 13 7 9 15 18 20 15 4 4 3 5 3 3 4 5 5 4 4 5 7 7 7 7 7 7 6 7 10 11 11 10 8 7 8 7 8 8 9 10 9 10 10 8 7 8 8 8 8 8 10 10 11 10 8 9 9 8 7 8 8 8 8 7 8 8
2 4 7 7 8 5 6 2 5 11 11 12 11 9 10 10 10 13 12 17 13 2 12 14 12 10 24 22 5 1 5 4 0 0 4 3 5 6 9 10 11 8 5 6 7 10 12 12 11 10 11 9 9 9 8 8 9 9 10 11 10 8 8 9 10 9 8 8 9 10 12 11 8 8 9 7 7 7 7 7 7 7 6 6 8 8
4 6 2 3 4 5 1 1 4 4 5 4 8 9 10 11 10 16 19 19 7 10 18 13 7 14 21 17 0 2 5 5 5 9 7 7 6 6 9 11 9 6 7 8 11 10 9 10 10 11 11 9 7 9 10 8 8 8 8 9 9 8 11 10 9 10 10 10 11 14 11 8 8 7 7 8 8 8 7 7 7 6 7 7 7 7
2 1 1 2 2 1 2 1 3 3 1 1 1 4 7 10 15 17 17 13 8 7 10 11 4 11 13 13 6 8 6 6 8 7 8 8 12 11 7 8 8 8 9 11 11 10 10 11 10 10 9 8 8 9 8 8 9 10 11 11 10 9 10 6 9 11 12 12 14 13 9 9 8 9 8 9 9 8 8 8 7 7 7 7 7 7
2 2 3 1 1 5 3 3 0 1 1 3 4 4 6 8 9 9 6 6 4 8 13 15 13 17 16 5 10 13 6 5 9 11 12 14 13 7 5 6 7 9 11 10 10 11 11 11 10 9 8 9 9 9 9 9 10 9 9 9 10 11 10 9 10 11 11 14 14 11 8 9 10 9 10 10 8 8 8 8 7 8 8 8 7 8
2 2 4 2 2 7 6 3 5 2 4 3 8 13 14 9 5 4 5 6 7 14 10 4 9 16 12 2 9 14 8 5 11 16 16 12 7 3 5 7 8 10 12 11 10 10 10 11 11 10 10 9 8 8 8 9 10 8 10 11 10 12 7 8 10 11 12 13 10 8 10 10 8 9 10 8 10 9 8 8 8 8 8 8 8 7
3 4 4 3 6 8 2 3 5 3 2 5 12 21 19 8 7 5 4 7 11 6 5 10 15 11 11 7 8 15 17 14 12 14 16 13 3 1 5 8 9 10 11 12 11 10 10 10 11 11 10 7 8 9 10 9 7 9 11 10 13 5 6 10 11 11 11 10 9 9 9 8 9 10 9 10 9 8 8 9 8 9 8 9 7 6
7 7 4 3 4 2 3 4 5 5 9 10 7 3 7 15 15 13 15 15 10 8 10 11 11 11 11 13 14 16 16 14 13 13 11 8 4 5 8 11 12 10 9 11 12 12 11 10 9 8 8 8 10 9 9 6 7 11 9 8 4 6 9 9 10 10 11 9 9 9 8 8 8 9 9 7 8 8 9 9 10 9 8 7 7 8
9 8 5 3 4 4 4 5 4 12 11 7 4 8 13 14 13 17 18 16 14 13 13 14 14 15 16 15 15 15 13 11 8 12 16 6 4 6 9 13 14 10 10 10 11 10 9 9 9 10 10 9 8 8 7 8 7 7 5 5 6 6 7 8 8 9 9 9 8 7 7 8 8 8 7 8 8 9 9 10 8 8 8 8 9 9
9 9 3 2 3 1 3 6 5 4 2 4 5 7 1 1 4 5 9 13 13 13 14 15 16 17 17 17 16 14 11 11 10 9 5 6 5 6 8 7 6 7 8 8 7 8 8 9 10 9 10 9 8 8 6 8 6 5 6 3 6 6 7 7 8 9 7 9 8 8 8 8 8 8 7 8 8 9 9 9 10 10 8 7 7 6
10 4 4 4 4 6 4 7 9 5 11 11 9 4 5 5 6 9 9 10 12 12 11 12 14 16 16 15 12 9 8 7 9 10 7 9 10 6 5 5 1 5 5 6 4 8 8 7 8 9 8 8 7 8 8 7 4 4 2 3 5 5 5 6 8 10 10 10 9 10 9 9 9 8 8 9 10 10 10 9 8 7 7 8 8 8
10 10 5 7 5 7 7 6 2 3 9 12 11 1 3 5 7 8 8 5 6 8 4 1 2 5 5 5 6 8 4 5 11 9 5 12 10 11 8 6 4 3 5 8 6 5 6 7 8 8 7 9 10 8 7 6 4 3 4 5 4 4 5 6 10 9 8 9 8 8 7 8 9 10 10 9 11 10 8 7 6 8 8 9 9 8
8 8 8 12 5 5 7 8 9 8 7 6 5 3 5 4 6 5 5 8 1 2 2 3 3 1 1 3 5 4 4 4 8 8 4 8 10 9 10 9 7 7 5 5 6 9 9 8 7 9 9 8 10 10 7 7 5 5 6 5 5 4 5 8 9 7 9 8 6 6 7 8 8 9 9 9 8 7 8 8 8 6 6 6 7 7
9 5 3 4 7 8 6 7 8 4 6 6 2 0 1 4 7 6 7 4 2 1 1 1 2 1 2 2 1 2 2 3 8 10 8 7 6 8 6 9 9 10 12 10 8 6 6 6 6 9 8 9 10 7 7 5 5 6 7 7 4 5 8 10 8 5 4 4 5 6 6 6 8 7 8 8 7 6 7 6 6 6 6 5 5 5
8 5 10 14 10 10 12 8 4 5 4 5 5 5 4 1 3 2 7 2 2 2 1 1 0 2 1 3 3 5 2 3 8 11 10 8 8 10 6 5 6 6 9 10 11 10 8 9 6 8 9 9 8 7 5 4 5 7 6 6 5 9 9 6 3 3 4 4 4 4 5 5 7 8 7 7 8 7 7 7 8 7 7 6 5 5
6 4 2 8 10 12 12 12 10 7 4 6 4 2 5 3 9 10 4 1 2 2 6 3 3 3 2 3 2 3 6 7 8 9 9 8 6 9 9 8 7 7 6 7 9 7 7 9 10 12 12 6 6 6 5 4 6 8 7 5 9 10 4 3 4 3 3 4 4 4 4 5 4 6 7 6 8 8 7 6 7 8 8 7 7 8
8 6 6 9 6 6 5 8 8 11 2 1 2 1 1 5 3 2 0 2 3 2 1 3 2 2 3 3 4 6 7 7 7 9 9 10 8 9 10 11 11 10 12 12 14 13 9 10 12 11 12 10 5 4 5 4 8 9 7 9 12 5 3 4 4 4 4 4 4 4 5 4 6 6 5 7 8 9 9 7 8 7 8 9 8 8
5 6 3 6 7 6 9 9 6 3 2 2 1 6 1 4 1 3 5 0 1 3 2 3 3 4 4 4 5 6 7 8 9 7 8 10 10 10 10 11 11 10 9 7 6 8 8 10 11 12 11 10 7 5 4 4 9 9 9 14 5 3 3 3 4 4 4 4 4 5 4 5 4 5 5 6 7 7 8 7 7 7 7 7 8 8
5 8 4 6 4 7 4 3 2 3 4 2 5 4 5 3 2 5 5 3 1 3 1 3 4 2 4 3 4 4 6 7 8 9 7 10 11 9 10 11 11 12 12 12 12 9 7 9 12 13 13 12 8 6 5 4 8 10 12 9 2 4 5 4 5 5 5 5 5 5 4 5 5 6 6 6 8 8 7 7 7 7 5 7 7 7
2 1 0 2 5 1 2 1 4 1 3 3 1 1 1 2 1 3 4 1 2 3 4 6 6 5 2 2 2 5 5 8 9 10 10 11 11 11 7 7 9 10 11 13 14 11 7 8 9 11 14 16 10 6 6 5 6 11 12 3 3 4 4 5 6 5 6 5 5 5 6 7 5 6 7 7 6 8 8 9 8 8 7 6 6 6
2 1 2 3 2 5 8 5 6 5 3 1 2 3 1 0 2 3 4 4 2 4 6 5 5 6 5 2 3 5 8 9 10 10 9 9 11 11 10 10 10 9 10 13 15 14 13 10 10 12 13 15 14 5 7 6 7 9 6 4 4 3 3 4 5 5 4 6 5 5 6 8 7 7 6 6 6 6 7 6 7 7 7 7 7 7
3 3 3 3 1 6 5 1 2 1 1 4 4 2 4 5 4 5 3 3 4 4 4 5 2 4 4 6 6 4 6 7 7 9 10 10 10 9 10 11 13 14 14 11 12 13 13 13 13 14 13 13 12 7 7 6 7 6 5 4 3 3 3 4 4 6 5 5 5 5 6 7 9 9 7 6 7 7 6 6 6 8 8 8 9 9
3 5 4 5 6 3 5 5 4 0 0 1 1 1 3 3 3 4 4 4 3 3 4 3 2 5 5 8 7 6 5 7 6 7 9 10 9 9 10 12 12 12 12 14 14 11 12 13 16 16 15 15 10 6 7 7 7 5 4 4 3 4 5 4 4 4 5 5 5 5 4 6 6 7 7 7 6 6 6 8 8 7 5 3 3 4
2 5 3 3 0 2 7 5 2 1 3 3 4 6 7 4 0 0 1 2 3 4 5 5 6 5 4 5 6 5 6 7 6 5 6 8 10 11 11 12 12 12 13 12 10 10 12 11 11 14 16 15 9 6 7 7 6 4 4 4 4 4 6 5 5 5 5 5 5 5 5 5 5 6 7 7 7 7 6 6 7 4 6 6 6 6
6 5 5 6 6 5 3 5 2 5 3 5 7 6 5 4 4 4 5 4 4 4 4 5 7 8 7 7 6 7 8 9 9 6 6 7 10 10 10 11 12 13 14 13 13 15 14 13 11 11 14 15 9 8 7 6 5 5 4 5 5 5 5 6 6 5 6 6 6 7 6 6 6 6 6 7 7 7 8 7 6 8 8 7 8 8
Wind_Direction
103 101 169 187 208 208 219 173 179 191 146 114 93 111 160 151 322 291 301 273 309 26 244 236 260 259 271 271 266 261 271 251 243 247 245 246 243 238 240 235 233 231 234 231 204 211 210 206 202 196 181 186 189 188 184 185 191 191 189 181 192 191 174 169 173 179 176 182 187 199 200 206 187 187 187 190 191 190 192 187 184 181 194 190 188 185
66 88 237 217 199 192 211 176 130 67 64 121 109 71 342 131 186 247 218 312 330 124 288 294 289 270 258 269 267 263 269 259 233 233 239 238 234 235 234 241 241 239 266 250 216 224 223 217 205 188 180 171 177 205 189 191 195 194 186 188 194 176 186 188 187 185 186 191 195 191 200 187 168 175 182 193 191 192 189 185 183 183 191 195 186 192
49 168 242 225 215 151 117 108 100 117 97 52 126 142 59 308 188 292 314 308 275 85 263 340 324 280 269 262 267 254 243 240 221 219 225 221 234 240 242 244 249 253 249 243 240 226 210 204 195 185 187 193 197 190 192 197 186 188 189 195 188 188 190 197 191 181 195 196 191 187 185 172 158 167 173 165 173 175 186 191 186 190 191 200 200 191
67 290 241 247 132 86 47 76 89 65 69 107 77 67 202 237 117 286 286 330 243 166 270 0 320 288 280 253 254 256 249 262 247 237 244 227 230 234 235 232 236 240 241 239 233 229 214 193 186 182 191 199 188 176 188 185 188 189 193 192 191 195 196 195 196 193 186 164 143 122 128 154 144 176 158 143 145 167 176 197 192 200 202 204 203 193
187 233 250 110 79 114 113 61 88 78 118 337 128 129 200 271 234 163 248 297 315 336 40 351 311 292 327 345 334 294 287 263 269 258 270 258 233 237 248 257 236 236 227 231 241 247 188 176 191 193 195 176 184 190 191 191 191 193 195 194 190 191 194 193 185 178 152 131 130 104 68 85 82 63 138 154 195 191 188 181 195 203 195 209 221 212
278 267 265 85 70 73 97 70 132 120 73 333 244 177 191 154 124 351 3 39 18 345 323 52 356 295 291 306 269 278 327 315 288 314 259 242 243 246 249 245 247 244 218 212 220 215 198 194 184 189 183 189 197 198 203 196 195 188 195 192 191 191 191 188 179 168 157 167 164 159 159 170 183 193 183 197 199 191 191 198 183 186 193 198 203 212
197 357 125 163 120 87 77 127 225 114 160 84 261 152 157 136 119 92 14 62 340 215 294 73 115 281 300 286 270 284 287 278 298 277 265 258 248 240 238 248 241 238 260 256 256 198 168 192 185 206 199 197 195 211 193 191 199 198 193 193 189 189 188 179 169 164 163 170 180 185 191 192 197 202 223 237 200 191 207 170 185 197 194 197 199 204
76 62 76 62 88 93 93 108 252 136 110 219 239 155 112 95 101 139 101 113 225 248 307 32 128 199 310 291 146 252 294 295 297 279 268 257 244 245 248 251 250 243 236 231 227 204 196 186 191 199 199 194 205 195 175 197 199 197 196 187 191 184 179 176 165 172 174 176 180 186 194 193 199 205 212 201 202 181 172 190 196 187 204 201 213 202
150 169 143 123 83 92 169 201 222 130 127 211 218 149 133 130 151 112 92 127 273 36 290 331 245 275 246 275 295 210 308 298 275 267 265 278 267 246 242 246 249 248 246 226 237 219 205 204 208 198 193 207 192 179 193 195 199 197 191 187 180 183 178 179 172 170 179 178 181 186 185 199 209 199 200 189 191 182 178 191 188 191 199 205 211 213
346 163 209 147 131 182 229 257 237 152 95 249 164 87 76 71 64 101 96 76 337 56 267 243 183 225 272 271 305 10 227 272 261 271 283 278 276 252 229 228 198 186 209 231 228 223 203 207 203 202 192 180 199 197 194 197 188 192 181 183 183 190 182 177 173 171 177 180 175 183 190 197 199 189 187 175 189 191 182 198 193 195 196 200 202 203
246 277 171 106 181 188 145 55 93 61 128 121 73 65 27 34 35 23 65 88 47 274 251 216 210 178 285 262 230 256 233 218 287 311 324 343 36 63 150 154 157 174 187 193 217 11 70 235 207 173 181 198 193 194 189 192 191 188 184 184 189 191 177 175 178 176 180 182 183 189 190 194 194 191 182 183 194 189 189 200 197 200 203 195 199 192
1 354 110 291 56 111 95 73 2 63 90 104 92 112 49 343 15 27 344 37 160 265 265 274 229 157 211 291 282 237 266 240 233 82 155 56 63 136 162 203 197 193 194 171 105 114 33 70 57 152 183 186 192 183 194 196 189 188 189 182 187 187 182 180 180 183 186 185 191 193 190 196 196 188 192 195 194 191 194 197 196 193 191 205 202 201
318 227 253 31 278 123 93 83 346 13 2 73 83 64 113 251 31 307 21 249 211 227 249 330 223 7 246 219 273 277 277 264 198 139 191 189 223 249 261 252 248 220 161 179 214 215 231 198 193 197 203 190 189 195 194 194 189 191 188 187 185 196 188 185 181 189 189 191 194 191 193 199 194 198 201 202 202 190 193 189 188 181 192 184 197 209
265 298 93 221 7 238 133 125 169 67 238 111 142 141 117 160 142 241 263 231 297 294 266 327 345 254 275 276 226 250 259 215 185 197 191 189 194 231 237 246 258 240 189 198 203 222 239 240 236 222 213 208 203 201 197 194 192 193 192 191 193 199 189 187 187 188 189 198 196 193 193 195 192 203 201 206 203 196 194 186 189 185 186 187 198 194
147 310 268 137 255 186 182 174 175 172 170 204 116 156 177 149 163 213 185 208 222 216 285 281 91 233 93 249 262 253 268 300 294 232 213 221 234 214 233 250 278 266 234 206 201 212 214 221 218 219 219 220 214 206 202 200 198 192 198 194 199 198 197 190 190 187 196 199 199 198 198 197 197 202 204 209 202 192 193 191 187 186 182 186 190 195
208 208 254 199 262 162 184 213 128 92 95 252 164 85 107 219 125 167 203 156 236 319 342 225 214 192 171 265 275 248 288 288 283 321 331 321 269 248 289 254 227 216 236 218 217 230 237 233 227 224 227 224 218 215 211 206 200 200 206 203 204 202 195 192 192 198 197 201 198 199 199 202 198 200 202 207 205 199 190 191 187 185 184 185 184 193
73 256 310 31 48 177 186 119 192 150 189 229 118 208 208 184 121 92 2 13 92 33 256 154 300 276 296 297 246 253 250 273 319 304 300 291 293 309 303 290 269 266 235 227 228 231 234 224 224 221 220 222 220 218 214 208 202 202 201 204 209 209 204 199 199 199 200 199 197 205 203 200 200 200 203 204 204 199 193 189 190 184 186 182 182 186
152 234 330 92 208 297 189 120 106 20 150 102 191 234 170 87 119 142 214 344 80 203 266 112 242 293 40 289 322 50 86 246 287 267 246 265 292 319 295 309 288 225 237 232 229 238 241 229 225 223 223 218 214 211 213 216 211 208 203 201 204 208 210 210 199 201 199 198 203 203 206 208 207 208 210 206 204 199 193 198 191 184 183 190 186 183
126 258 285 357 186 282 343 135 356 341 45 150 191 205 126 255 254 303 97 249 229 267 272 280 256 268 194 242 114 86 163 281 285 275 319 285 271 259 296 311 308 302 281 199 222 250 259 244 230 221 222 221 218 216 215 215 210 210 210 208 206 212 214 208 204 202 203 200 201 202 203 203 209 211 210 209 203 197 200 197 195 192 190 184 180 174
78 177 281 345 123 306 13 115 200 193 327 33 64 111 140 100 161 146 200 173 116 238 89 280 120 264 191 215 161 224 309 311 301 304 273 259 281 291 318 271 278 291 320 345 323 273 273 275 250 222 213 213 216 217 219 214 210 215 214 210 218 225 221 215 209 202 204 203 202 203 200 208 206 205 205 201 197 204 204 201 193 192 186 186 176 179
231 160 233 272 306 79 194 198 205 154 158 196 128 213 219 29 228 113 295 143 170 186 182 257 295 252 254 153 142 190 210 216 217 122 86 98 117 141 263 267 279 292 335 321 305 298 283 270 263 255 244 234 232 216 206 207 212 218 217 223 219 217 218 218 214 203 210 196 207 201 204 205 202 206 202 201 202 204 205 198 196 194 189 172 186 171
184 169 189 146 29 239 246 237 175 179 183 178 177 195 183 139 148 161 257 26 120 186 236 146 259 279 257 168 164 210 207 152 183 115 352 290 275 297 318 335 128 69 302 278 289 284 275 268 276 279 288 253 207 211 206 218 217 222 220 221 221 228 227 220 218 210 205 206 205 207 207 203 202 200 200 202 204 205 203 196 195 191 182 188 183 176
163 149 112 188 203 203 219 250 247 218 235 216 177 213 176 174 132 143 207 255 2 248 160 160 30 269 189 152 154 147 170 164 180 168 217 257 279 291 311 335 322 250 252 275 276 280 270 247 226 218 214 217 214 214 204 217 223 228 228 224 224 221 233 222 226 214 205 207 209 214 208 200 201 197 202 204 207 208 203 199 195 191 191 189 182 188
97 97 126 295 348 331 338 316 26 80 176 256 260 105 108 194 185 173 175 190 164 230 225 252 223 265 332 63 52 142 243 292 336 317 249 276 299 306 342 323 282 282 281 259 277 300 308 319 298 255 239 239 236 227 217 212 219 230 233 227 224 230 232 225 223 217 212 212 218 211 204 208 202 201 205 208 208 208 204 198 196 191 201 195 182 188
170 256 144 139 26 349 345 345 345 329 89 173 202 196 178 180 150 173 101 99 179 212 202 146 237 253 129 262 70 81 77 57 26 9 48 342 327 304 302 291 296 297 311 313 292 271 301 306 286 267 256 250 247 247 236 223 222 223 225 220 229 238 230 227 223 222 224 213 212 210 210 214 203 207 209 210 204 208 200 200 196 193 199 192 195 193
170 176 147 167 197 203 213 194 207 219 209 236 213 198 187 174 175 121 229 199 220 238 196 198 245 259 248 104 59 50 32 5 327 325 327 140 219 297 315 307 295 280 269 279 287 299 273 252 257 268 261 254 246 240 239 233 229 229 230 222 209 222 222 221 210 222 217 211 208 213 214 214 210 214 212 208 206 204 199 197 194 194 202 191 193 189
177 192 185 189 196 215 213 203 235 130 90 176 236 182 199 199 181 187 137 181 218 225 213 230 233 255 269 254 229 338 353 290 298 302 288 311 326 301 271 276 274 266 260 257 261 270 281 282 264 255 256 249 246 240 239 234 233 232 232 237 226 213 205 206 198 210 213 210 211 215 219 212 214 212 212 209 207 203 200 197 195 191 197 193 192 187
87 186 225 200 221 210 172 187 191 162 181 202 195 202 195 180 185 185 189 221 214 193 251 232 229 249 260 263 274 0 289 296 55 226 285 287 277 277 272 274 277 284 287 272 268 264 262 266 271 267 261 255 247 245 248 239 233 230 226 233 227 224 215 203 194 199 209 209 216 220 222 214 210 209 209 206 203 201 200 196 195 196 193 186 193 192
145 190 273 131 243 188 204 97 88 149 182 196 202 195 192 199 186 194 214 225 160 199 232 240 173 229 254 268 325 180 267 280 291 284 266 243 242 265 276 277 285 293 285 273 264 262 260 261 262 266 266 252 247 249 248 248 245 239 240 235 231 216 219 210 191 194 202 206 217 224 218 203 205 203 202 200 201 199 196 193 192 190 188 192 196 191
91 259 171 96 252 242 167 95 54 91 33 53 144 188 207 200 208 209 223 226 204 227 251 264 215 238 260 277 290 260 249 275 277 279 294 288 271 262 272 287 291 285 272 269 270 270 271 270 268 261 259 261 252 252 254 252 247 236 230 233 226 219 223 189 209 203 203 206 218 224 206 199 195 196 194 198 201 199 190 189 187 186 189 194 192 188
100 291 54 55 318 266 232 153 246 120 74 298 265 239 227 218 222 233 241 260 270 275 261 265 276 274 263 296 298 280 282 289 298 286 270 267 274 282 286 278 274 270 271 273 275 273 270 274 276 272 264 260 258 252 249 248 248 244 237 237 227 221 215 190 205 213 213 215 217 213 194 196 201 187 197 201 194 194 188 187 182 187 191 191 188 186
66 248 42 61 228 267 256 203 243 158 137 191 266 270 254 231 228 201 207 208 204 230 248 308 280 260 275 147 263 286 284 265 274 279 277 274 284 324 281 275 271 272 274 273 271 276 282 281 280 277 271 269 267 260 253 252 248 242 239 235 230 228 200 193 208 213 219 226 228 201 194 201 193 193 200 188 197 189 187 179 182 189 189 188 188 187
160 138 151 153 197 233 293 157 203 146 108 251 238 235 235 247 224 220 231 217 216 201 212 230 245 260 273 270 275 280 282 279 273 274 281 288 316 331 279 271 264 262 271 281 283 281 278 274 273 275 281 290 284 277 265 250 251 240 239 234 236 207 175 204 210 215 222 224 217 215 206 191 194 200 195 196 189 183 178 182 184 188 186 192 186 175
149 159 176 158 196 224 160 160 132 151 214 228 236 204 181 223 226 233 244 239 231 180 223 227 251 267 269 268 260 262 272 272 274 277 274 285 5 326 292 278 269 266 271 279 282 282 281 288 295 295 288 280 279 274 276 274 249 251 244 241 221 184 209 205 217 215 224 220 216 210 204 198 196 200 200 185 182 180 182 183 192 187 186 178 175 183
166 178 183 178 161 227 142 123 164 215 231 239 121 166 198 211 211 217 233 237 239 238 242 253 252 251 255 260 265 267 266 275 277 277 284 333 3 290 271 278 292 308 298 293 299 306 315 316 312 312 311 308 299 293 293 285 259 265 271 218 207 209 206 215 216 221 223 222 219 205 203 200 198 200 189 184 182 183 187 188 184 181 183 178 179 181
173 171 155 195 169 198 145 175 226 218 222 319 268 233 276 212 214 218 257 254 241 235 233 239 245 251 257 262 264 266 276 281 285 275 313 9 8 324 309 314 339 338 333 326 327 319 326 323 316 311 306 303 309 302 294 278 289 267 254 202 207 205 208 206 214 223 219 224 215 209 205 197 198 195 186 184 184 186 190 187 183 183 178 174 180 185
160 141 164 210 186 215 171 209 229 344 319 288 287 258 157 173 161 175 229 250 234 232 228 233 240 247 252 260 277 304 318 331 310 302 55 23 1 351 329 316 331 315 313 313 304 304 305 301 307 305 306 308 307 311 308 303 300 265 244 205 228 206 214 203 217 220 216 219 210 207 199 195 191 190 187 187 187 192 188 182 181 178 168 171 177 177
164 171 190 189 223 187 225 254 234 182 237 252 237 264 176 171 167 181 179 259 53 30 51 106 290 322 336 352 6 329 339 351 297 283 52 8 352 336 326 318 329 340 332 325 318 296 300 305 306 303 305 307 308 302 300 302 299 283 260 251 234 214 220 216 229 227 220 222 213 204 194 191 188 191 191 189 194 189 182 176 176 177 173 173 172 181
195 189 181 192 202 172 205 220 230 229 232 241 264 218 256 229 179 126 150 243 196 295 359 111 71 40 71 10 328 349 42 300 271 285 345 2 335 327 321 315 323 320 314 307 305 311 310 305 296 293 306 309 310 311 312 299 292 282 271 263 254 239 236 233 239 228 223 224 207 199 194 192 192 190 186 189 187 175 173 178 179 169 166 172 169 175
185 180 93 234 214 209 209 219 230 211 246 240 238 253 250 111 105 115 199 248 154 243 288 71 105 81 312 332 283 72 106 314 284 300 322 326 308 294 293 299 316 323 322 321 314 295 285 283 308 312 314 312 301 306 303 305 297 280 274 275 267 252 244 242 240 243 236 218 201 199 192 188 186 183 179 178 167 167 169 153 142 157 160 158 154 153
187 194 193 201 207 221 222 243 265 270 248 244 229 218 258 299 52 310 213 207 154 166 228 159 299 316 298 3 6 358 224 240 262 281 302 307 316 305 289 258 265 280 293 303 303 313 315 313 306 295 293 292 294 301 302 303 291 278 273 274 271 255 251 262 261 224 215 201 194 190 189 183 180 172 173 168 164 155 148 153 153 149 151 149 144 143
197 195 204 201 215 219 223 230 235 268 223 216 259 165 169 123 220 224 216 142 174 177 174 174 173 238 205 273 238 221 264 282 284 290 295 298 291 285 288 290 290 288 270 262 274 287 299 310 312 313 309 290 282 291 296 294 276 268 273 267 255 252 270 258 224 205 190 184 184 180 174 173 168 166 156 147 141 143 148 151 149 154 150 149 149 151
183 175 191 197 201 225 206 232 230 234 308 90 165 64 121 191 248 128 207 294 181 233 144 193 170 241 177 271 268 271 277 282 275 285 294 302 308 307 311 314 315 315 317 324 325 321 325 317 312 308 301 304 288 276 276 276 271 272 267 258 254 255 230 206 186 174 169 165 163 166 163 161 156 150 147 149 152 148 148 149 148 149 148 148 149 149
198 183 191 211 178 209 200 217 206 209 158 264 138 191 328 152 164 158 153 241 238 195 212 175 199 199 204 207 260 278 277 290 303 299 309 310 310 311 312 311 309 312 310 298 275 283 304 300 295 295 296 298 291 269 262 240 266 269 266 259 259 219 190 168 157 152 151 156 156 147 150 149 144 138 141 144 139 140 140 147 146 144 152 151 150 151
214 183 187 193 219 177 196 205 191 172 128 84 104 123 169 199 151 165 155 190 119 305 208 337 296 220 205 223 243 246 286 287 285 294 296 291 298 300 303 305 305 307 310 311 310 306 298 290 294 298 296 291 285 270 257 240 251 271 262 269 196 200 174 165 155 153 156 157 156 149 142 132 135 138 136 140 142 140 145 142 144 144 153 149 151 153
347 145 71 110 260 280 280 165 143 78 104 91 77 165 172 224 248 145 156 79 285 244 298 301 289 286 259 205 269 298 282 286 298 299 300 302 302 300 296 297 304 307 310 314 314 316 303 290 289 290 290 294 287 269 261 245 233 254 262 285 234 214 184 162 159 160 162 158 153 151 144 133 129 133 137 141 146 147 152 152 153 149 154 152 155 156
250 127 77 178 267 194 250 175 165 175 147 169 208 272 276 197 192 153 148 182 245 274 289 271 254 273 280 224 213 248 281 290 292 292 293 297 300 302 307 308 306 307 309 312 309 315 318 314 301 294 291 291 295 290 266 251 246 245 270 249 231 222 186 173 163 161 159 158 153 150 150 144 146 141 137 136 133 137 142 146 146 149 156 160 160 160
278 176 145 203 218 174 235 152 197 169 213 242 221 184 120 115 140 177 191 207 221 254 238 260 256 277 273 304 289 262 260 273 282 289 298 298 298 302 306 308 310 315 313 308 306 310 311 308 305 299 294 287 289 293 271 260 254 252 245 233 222 198 179 176 174 167 170 163 158 156 156 147 145 142 141 144 143 140 140 146 154 159 166 171 170 164
193 101 217 175 191 283 319 295 268 87 8 306 344 199 192 190 202 227 225 236 254 254 280 295 235 258 292 287 298 300 295 279 271 276 288 294 296 300 302 305 305 303 304 310 311 312 303 304 304 300 298 290 290 283 266 260 257 249 226 214 199 186 176 186 174 163 157 161 151 156 157 151 151 148 144 143 141 143 154 161 165 161 161 163 174 186
117 204 212 90 49 233 203 230 126 104 275 290 307 292 298 282 146 264 14 33 25 14 340 332 315 296 275 276 287 296 296 295 296 287 279 284 291 298 302 302 303 303 302 300 298 297 296 292 287 292 294 290 294 281 260 257 260 249 226 201 194 187 184 180 168 167 173 167 161 155 155 152 150 150 147 145 142 132 103 89 112 140 153 158 150 143
176 211 175 187 177 225 163 198 173 145 216 243 261 283 297 354 47 51 40 30 7 1 346 348 335 330 328 317 316 319 314 312 307 301 291 283 286 286 289 293 297 300 301 306 311 309 305 300 295 288 286 285 292 275 257 254 253 247 229 197 192 189 190 172 174 180 180 172 171 168 161 159 151 155 148 148 145 136 129 118 99 110 130 140 145 150